Mt. Clemens, MI

4:30 PM EST on December 15, 2019 (GMT -0500)
Selfridge Angb

Weather History for KMTC - September, 2019

Change the Weather History Date:

Saturday, September 14, 2019

  Actual Average Record
Temperature  
Mean Temperature 65 °F -  
Max Temperature 74 °F 72 °F 89 °F (2002)
Min Temperature 56 °F 52 °F 37 °F (1963)
Growing Degree Days 15 (Base 50)    
Moisture  
Dew Point 57 °F    
Average Humidity 74    
Maximum Humidity 100    
Minimum Humidity 50    
Precipitation  
Precipitation 0.00 in - - ()
Sea Level Pressure  
Sea Level Pressure 30.15 in    
Wind  
Wind Speed 8 mph (WSW)    
Max Wind Speed 14 mph    
Max Gust Speed 17 mph    
Visibility 10 miles    
Events      
Averages and records for this station are not official NWS values.
T = Trace of Precipitation, MM = Missing Value Source: NWS Daily Summary

Daily Weather History Graph

Daily Weather History Graph

Search for Another Location

Airport or City:

Astronomy

Sep. 14, 2019 Rise Set
Actual Time 7:09 AM EDT 7:43 PM EDT
Civil Twilight 6:41 AM EDT 8:11 PM EDT
Nautical Twilight 6:07 AM EDT 8:44 PM EDT
Astronomical Twilight 5:33 AM EDT 9:19 PM EDT
Moon 8:23 PM EDT (9/14) 7:21 AM EDT (9/14)
Length of Visible Light 13h 30m
Length of Day
12h 33m
Full, 100% of the Moon is Illuminated
Sep 14
Full
Sep 21
Last Quarter
Sep 28
New
Oct 5
First Quarter
Oct 13
Full

Hourly Weather History & Observations

Time (EDT) Temp. Dew Point Humidity Pressure Visibility Wind Dir Wind Speed Gust Speed Precip Events Conditions
12:56 AM 64.9 °F 60.6 °F 86% 30.07 in 10.0 mi WSW 4.6 mph - N/A   Clear
1:56 AM 64.0 °F 59.0 °F 84% 30.09 in 10.0 mi West 10.4 mph - N/A   Clear
2:56 AM 62.4 °F 57.2 °F 83% 30.10 in 10.0 mi WSW 6.9 mph - N/A   Clear
3:56 AM 60.6 °F 57.0 °F 88% 30.10 in 10.0 mi SW 5.8 mph - N/A   Clear
4:56 AM 57.9 °F 57.6 °F 99% 30.12 in 10.0 mi SSW 5.8 mph - N/A   Clear
5:56 AM 56.5 °F 56.5 °F 100% 30.12 in 10.0 mi SSW 6.9 mph - N/A   Clear
6:56 AM 57.7 °F 57.4 °F 99% 30.13 in 10.0 mi SSW 6.9 mph - N/A   Clear
7:55 AM 60.8 °F 57.9 °F 90% 30.14 in 10.0 mi SW 8.1 mph - N/A   Partly Cloudy
8:55 AM 63.5 °F 58.8 °F 85% 30.17 in 10.0 mi WSW 10.4 mph - N/A   Partly Cloudy
9:57 AM 66.4 °F 59.0 °F 77% 30.18 in 10.0 mi WSW 10.4 mph - N/A   Partly Cloudy
10:18 AM 66.2 °F 59.0 °F 78% 30.18 in 10.0 mi West 12.7 mph - N/A   Mostly Cloudy
10:49 AM 66.2 °F 57.2 °F 73% 30.19 in 10.0 mi WSW 13.8 mph - N/A   Overcast
10:56 AM 66.6 °F 57.6 °F 73% 30.19 in 10.0 mi WSW 11.5 mph - N/A   Mostly Cloudy
11:55 AM 69.6 °F 57.4 °F 65% 30.19 in 10.0 mi West 10.4 mph - N/A   Mostly Cloudy
12:56 PM 71.1 °F 56.5 °F 60% 30.18 in 10.0 mi West 12.7 mph 17.3 mph N/A   Partly Cloudy
1:55 PM 72.7 °F 56.5 °F 57% 30.17 in 10.0 mi WSW 8.1 mph - N/A   Mostly Cloudy
2:55 PM 74.1 °F 55.9 °F 53% 30.16 in 10.0 mi West 10.4 mph - N/A   Mostly Cloudy
3:56 PM 73.9 °F 54.1 °F 50% 30.16 in 10.0 mi West 12.7 mph - N/A   Mostly Cloudy
4:56 PM 74.3 °F 55.0 °F 51% 30.15 in 10.0 mi WSW 9.2 mph - N/A   Scattered Clouds
5:55 PM 74.3 °F 55.6 °F 52% 30.14 in 10.0 mi WSW 10.4 mph - N/A   Partly Cloudy
6:55 PM 72.9 °F 56.3 °F 56% 30.14 in 10.0 mi WSW 6.9 mph - N/A   Partly Cloudy
7:55 PM 69.8 °F 55.8 °F 61% 30.15 in 10.0 mi SW 3.5 mph - N/A   Partly Cloudy
8:55 PM 63.7 °F 57.7 °F 81% 30.15 in 12.0 mi Calm Calm - N/A   Partly Cloudy
9:55 PM 64.9 °F 56.8 °F 75% 30.16 in 12.0 mi SW 4.6 mph - N/A   Partly Cloudy
10:55 PM 65.3 °F 57.2 °F 75% 30.17 in 12.0 mi SW 3.5 mph - N/A   Partly Cloudy
11:56 PM 62.6 °F 57.4 °F 83% 30.18 in 10.0 mi WSW 4.6 mph - N/A   Clear